TimeCST,TemperatureF,Dew PointF,Humidity,Sea Level PressureIn,VisibilityMPH,Wind Direction,Wind SpeedMPH,Gust SpeedMPH,PrecipitationIn,Events,Conditions,WindDirDegrees,DateUTC
12:38 AM,-0.4,-4.0,85,29.86,8.0,SE,3.5,-,N/A,,Clear,140,2013-02-23 06:38:00
12:55 AM,0.5,-3.3,84,29.86,10.0,Calm,Calm,-,0.00,,Clear,0,2013-02-23 06:55:00
1:55 AM,-1.1,-5.1,83,29.85,10.0,Calm,Calm,-,N/A,,Clear,0,2013-02-23 07:55:00
2:55 AM,-0.9,-4.9,83,29.83,10.0,Calm,Calm,-,N/A,,Clear,0,2013-02-23 08:55:00
3:55 AM,-1.8,-5.8,83,29.82,10.0,Calm,Calm,-,N/A,,Clear,0,2013-02-23 09:55:00
4:55 AM,-2.4,-6.9,81,29.81,10.0,Calm,Calm,-,N/A,,Clear,0,2013-02-23 10:55:00
5:55 AM,-4.0,-8.3,82,29.81,10.0,SSE,5.8,-,0.00,,Clear,150,2013-02-23 11:55:00
6:55 AM,-1.5,-5.6,83,29.81,9.0,Calm,Calm,-,N/A,,Clear,0,2013-02-23 12:55:00
7:55 AM,-1.7,-6.0,82,29.81,9.0,Calm,Calm,-,0.00,,Clear,0,2013-02-23 13:55:00
8:55 AM,0.9,-3.1,83,29.81,10.0,SSE,4.6,-,N/A,,Clear,160,2013-02-23 14:55:00
9:55 AM,4.6,0.9,84,29.81,10.0,SSE,3.5,-,0.00,,Clear,150,2013-02-23 15:55:00
10:55 AM,10.6,7.5,87,29.81,10.0,SSE,6.9,-,0.00,Snow,Light Snow,150,2013-02-23 16:55:00
11:55 AM,15.3,12.6,89,29.79,10.0,SE,8.1,-,0.00,,Clear,140,2013-02-23 17:55:00
12:55 PM,19.4,17.4,92,29.78,10.0,SE,9.2,-,N/A,,Mostly Cloudy,130,2013-02-23 18:55:00
1:55 PM,23.5,18.9,82,29.77,10.0,SE,9.2,-,N/A,,Mostly Cloudy,130,2013-02-23 19:55:00
2:55 PM,27.3,22.5,82,29.75,10.0,SE,10.4,-,N/A,,Overcast,130,2013-02-23 20:55:00
3:55 PM,28.9,23.5,80,29.76,10.0,SE,10.4,-,N/A,,Scattered Clouds,130,2013-02-23 21:55:00
4:55 PM,27.7,23.5,84,29.77,10.0,SE,12.7,-,N/A,,Scattered Clouds,130,2013-02-23 22:55:00
5:55 PM,25.5,21.9,86,29.79,10.0,SE,6.9,-,N/A,,Scattered Clouds,130,2013-02-23 23:55:00
6:55 PM,24.3,21.2,88,29.81,10.0,SE,10.4,-,N/A,,Clear,130,2013-02-24 00:55:00
7:55 PM,24.4,21.4,88,29.83,10.0,ESE,6.9,-,N/A,,Overcast,120,2013-02-24 01:55:00
8:55 PM,23.5,20.5,88,29.85,10.0,SE,6.9,-,N/A,,Mostly Cloudy,140,2013-02-24 02:55:00
9:55 PM,23.2,20.1,88,29.85,10.0,SE,8.1,-,N/A,,Overcast,140,2013-02-24 03:55:00
10:55 PM,24.3,21.4,89,29.83,10.0,SE,6.9,-,N/A,,Mostly Cloudy,140,2013-02-24 04:55:00
11:55 PM,25.9,23.5,91,29.84,10.0,WNW,4.6,-,N/A,,Clear,290,2013-02-24 05:55:00